FLOCK 1E-1

Last updated on Wed May 18 2016 15:36:27 GMT+0000 (Coordinated Universal Time)

1 40723U 98067GF 16139.35447088 .42996614 12834-4 39618-3 0 9998 2 40723 51.6016 169.3152 0016192 306.1352 54.2420 16.50184805 48594

Satellite not in orbit